QPF
0.11 0.05 0.03 0.04 0.03 0.04 0.06 0.05 0.04 0.03 0.03 0.03 0.05 0.04 0.04 0.04 0.03 0.04 0.03 0.04 0.05 0.04 0.04 0.04 0.04 0.05 0.05 0.05 0.06 0.06 0.04 0.03 0.03 0.03 0.02 0.02 0.03 0.03 0.02 0.03 0.06 0.10 0.08
0.08 0.04 0.03 0.03 0.03 0.04 0.03 0.04 0.05 0.04 0.04 0.03 0.04 0.04 0.06 0.06 0.05 0.05 0.04 0.04 0.04 0.03 0.04 0.04 0.04 0.05 0.04 0.06 0.06 0.07 0.05 0.04 0.03 0.03 0.04 0.05 0.04 0.03 0.03 0.03 0.06 0.07 0.04
0.06 0.02 0.02 0.02 0.02 0.02 0.02 0.03 0.04 0.03 0.03 0.04 0.05 0.04 0.05 0.06 0.05 0.04 0.04 0.05 0.03 0.02 0.04 0.06 0.05 0.05 0.05 0.05 0.04 0.04 0.04 0.04 0.04 0.05 0.07 0.12 0.08 0.03 0.02 0.03 0.02 0.02 0.02
0.04 0.01 0.01 0.01 0.01 0.01 0.02 0.03 0.03 0.03 0.03 0.04 0.05 0.04 0.04 0.05 0.05 0.05 0.05 0.04 0.03 0.04 0.05 0.05 0.05 0.04 0.03 0.03 0.03 0.02 0.02 0.02 0.04 0.06 0.09 0.10 0.10 0.05 0.03 0.03 0.04 0.04 0.03
0.02 0.01 0.01 0.01 0.01 0.01 0.01 0.02 0.03 0.04 0.03 0.04 0.05 0.04 0.04 0.05 0.07 0.06 0.04 0.04 0.04 0.05 0.05 0.05 0.04 0.04 0.03 0.03 0.01 0.01 0.01 0.01 0.04 0.06 0.07 0.11 0.13 0.08 0.04 0.04 0.04 0.05 0.07
0.02 0.03 0.02 0.02 0.02 0.02 0.02 0.02 0.03 0.04 0.04 0.05 0.06 0.05 0.05 0.05 0.05 0.04 0.04 0.04 0.04 0.05 0.05 0.04 0.03 0.03 0.03 0.02 0.01 0.01 0.01 0.02 0.04 0.06 0.09 0.12 0.11 0.08 0.05 0.04 0.03 0.04 0.06
0.02 0.03 0.02 0.02 0.02 0.02 0.02 0.03 0.04 0.05 0.05 0.06 0.06 0.05 0.04 0.05 0.04 0.04 0.05 0.04 0.04 0.06 0.04 0.03 0.03 0.03 0.02 0.01 0.01 0.01 0.03 0.03 0.05 0.08 0.09 0.11 0.09 0.07 0.05 0.03 0.03 0.04 0.05
0.02 0.03 0.03 0.02 0.03 0.03 0.05 0.05 0.05 0.05 0.05 0.05 0.05 0.04 0.04 0.04 0.04 0.05 0.06 0.05 0.05 0.05 0.05 0.04 0.03 0.03 0.01 0.01 0.01 0.03 0.04 0.04 0.04 0.06 0.08 0.11 0.08 0.06 0.04 0.04 0.04 0.05 0.05
0.02 0.04 0.07 0.05 0.03 0.03 0.04 0.06 0.08 0.07 0.05 0.05 0.05 0.05 0.04 0.04 0.04 0.07 0.08 0.06 0.05 0.05 0.05 0.05 0.03 0.03 0.01 0.01 0.01 0.02 0.01 0.02 0.04 0.06 0.06 0.06 0.05 0.05 0.05 0.06 0.06 0.06 0.06
0.02 0.03 0.04 0.06 0.07 0.08 0.08 0.06 0.07 0.07 0.05 0.05 0.06 0.05 0.05 0.05 0.05 0.09 0.09 0.06 0.06 0.05 0.05 0.03 0.02 0.02 0.01 0.01 0.01 0.01 0.02 0.02 0.05 0.05 0.05 0.03 0.04 0.04 0.05 0.06 0.06 0.06 0.08
0.03 0.03 0.01 0.02 0.04 0.06 0.08 0.06 0.05 0.07 0.07 0.06 0.05 0.05 0.06 0.08 0.10 0.10 0.07 0.06 0.06 0.06 0.05 0.03 0.03 0.02 0.02 0.02 0.02 0.03 0.03 0.03 0.04 0.04 0.05 0.05 0.06 0.05 0.06 0.08 0.08 0.08 0.10
0.04 0.02 0.01 0.02 0.04 0.04 0.05 0.08 0.09 0.07 0.06 0.06 0.05 0.09 0.13 0.13 0.12 0.08 0.05 0.06 0.07 0.06 0.03 0.02 0.03 0.02 0.02 0.02 0.03 0.02 0.03 0.03 0.04 0.04 0.04 0.07 0.06 0.06 0.06 0.08 0.11 0.12 0.11
0.01 0.01 0.00 0.01 0.03 0.03 0.03 0.09 0.12 0.10 0.08 0.06 0.05 0.06 0.07 0.07 0.06 0.05 0.07 0.08 0.06 0.03 0.02 0.02 0.02 0.01 0.01 0.02 0.03 0.02 0.02 0.03 0.03 0.03 0.04 0.05 0.06 0.07 0.06 0.08 0.09 0.09 0.08
0.02 0.01 0.00 0.01 0.01 0.02 0.02 0.03 0.05 0.07 0.07 0.06 0.06 0.04 0.03 0.03 0.04 0.06 0.06 0.04 0.03 0.02 0.03 0.02 0.02 0.02 0.02 0.02 0.02 0.01 0.02 0.02 0.02 0.03 0.03 0.03 0.06 0.09 0.09 0.08 0.07 0.07 0.08
0.01 0.01 0.01 0.00 0.01 0.02 0.02 0.02 0.03 0.04 0.05 0.04 0.03 0.02 0.02 0.02 0.03 0.04 0.03 0.02 0.02 0.02 0.02 0.02 0.02 0.02 0.02 0.01 0.00 0.00 0.01 0.02 0.02 0.03 0.03 0.04 0.07 0.10 0.12 0.12 0.09 0.07 0.09
0.01 0.01 0.00 0.00 0.01 0.02 0.02 0.03 0.02 0.02 0.02 0.02 0.02 0.01 0.02 0.02 0.03 0.01 0.01 0.02 0.02 0.01 0.01 0.01 0.01 0.01 0.01 0.01 0.01 0.01 0.01 0.01 0.01 0.03 0.04 0.07 0.07 0.08 0.10 0.12 0.12 0.11 0.12
0.01 0.01 0.00 0.00 0.01 0.01 0.02 0.02 0.02 0.02 0.02 0.02 0.02 0.01 0.02 0.01 0.02 0.01 0.01 0.01 0.01 0.01 0.01 0.01 0.01 0.00 0.01 0.01 0.01 0.01 0.02 0.03 0.03 0.03 0.04 0.06 0.05 0.03 0.03 0.05 0.08 0.10 0.09
0.01 0.01 0.01 0.01 0.01 0.01 0.01 0.01 0.02 0.02 0.03 0.03 0.03 0.02 0.03 0.02 0.02 0.02 0.02 0.01 0.01 0.02 0.02 0.02 0.01 0.01 0.01 0.01 0.01 0.01 0.03 0.04 0.04 0.03 0.03 0.03 0.02 0.01 0.01 0.01 0.02 0.04 0.05
0.01 0.01 0.01 0.01 0.01 0.01 0.01 0.02 0.01 0.01 0.02 0.01 0.01 0.03 0.04 0.02 0.02 0.03 0.03 0.02 0.02 0.02 0.03 0.03 0.03 0.02 0.01 0.01 0.02 0.02 0.02 0.03 0.03 0.03 0.03 0.02 0.01 0.01 0.01 0.01 0.01 0.01 0.02
0.01 0.01 0.01 0.01 0.01 0.01 0.01 0.02 0.02 0.02 0.02 0.01 0.02 0.03 0.03 0.02 0.02 0.02 0.03 0.02 0.02 0.03 0.04 0.04 0.04 0.03 0.02 0.02 0.01 0.02 0.03 0.03 0.02 0.02 0.02 0.02 0.01 0.01 0.01 0.01 0.01 0.01 0.01
0.01 0.02 0.02 0.01 0.01 0.01 0.01 0.01 0.02 0.03 0.02 0.02 0.02 0.02 0.02 0.01 0.01 0.01 0.02 0.03 0.03 0.04 0.05 0.06 0.06 0.05 0.04 0.03 0.03 0.03 0.03 0.03 0.02 0.02 0.02 0.01 0.01 0.01 0.00 0.00 0.01 0.02 0.02
0.00 0.01 0.01 0.02 0.01 0.01 0.00 0.01 0.02 0.02 0.01 0.01 0.01 0.02 0.02 0.02 0.01 0.01 0.01 0.02 0.02 0.03 0.04 0.05 0.06 0.07 0.06 0.05 0.05 0.06 0.05 0.04 0.02 0.01 0.01 0.00 0.01 0.01 0.01 0.00 0.00 0.01 0.02
0.00 0.00 0.01 0.01 0.01 0.01 0.01 0.02 0.02 0.02 0.02 0.02 0.02 0.02 0.02 0.02 0.02 0.01 0.00 0.01 0.01 0.02 0.03 0.03 0.03 0.04 0.05 0.06 0.06 0.07 0.07 0.05 0.03 0.02 0.01 0.01 0.00 0.01 0.01 0.01 0.01 0.00 0.01
0.00 0.00 0.00 0.01 0.01 0.01 0.01 0.01 0.02 0.03 0.04 0.03 0.02 0.02 0.02 0.02 0.02 0.01 0.01 0.01 0.02 0.01 0.01 0.01 0.02 0.03 0.04 0.06 0.07 0.06 0.05 0.05 0.04 0.02 0.02 0.02 0.01 0.00 0.00 0.00 0.01 0.01 0.01
0.00 0.00 0.00 0.01 0.01 0.01 0.01 0.01 0.02 0.02 0.04 0.04 0.03 0.03 0.03 0.02 0.03 0.02 0.01 0.01 0.02 0.02 0.01 0.02 0.03 0.04 0.04 0.05 0.06 0.06 0.06 0.05 0.04 0.04 0.03 0.02 0.02 0.01 0.01 0.01 0.01 0.01 0.01
0.01 0.01 0.01 0.01 0.01 0.01 0.02 0.01 0.01 0.02 0.02 0.03 0.04 0.04 0.03 0.03 0.03 0.02 0.02 0.02 0.02 0.02 0.01 0.01 0.02 0.03 0.04 0.04 0.05 0.06 0.06 0.05 0.05 0.05 0.04 0.03 0.03 0.02 0.01 0.01 0.01 0.01 0.00
MSLP
1010.86 1010.46 1010.16 1010.01 1010.00 1010.10 1010.26 1010.41 1010.50 1010.51 1010.47 1010.40 1010.36 1010.39 1010.50 1010.71 1010.97 1011.27 1011.55 1011.78 1011.95 1012.07 1012.14 1012.19 1012.24 1012.29 1012.35 1012.41 1012.46 1012.50 1012.52 1012.53 1012.55 1012.57 1012.62 1012.69 1012.77 1012.86 1012.95 1013.01 1013.06 1013.08 1013.08
1010.96 1010.59 1010.32 1010.19 1010.21 1010.33 1010.49 1010.64 1010.72 1010.72 1010.66 1010.58 1010.53 1010.56 1010.70 1010.92 1011.22 1011.54 1011.85 1012.11 1012.30 1012.44 1012.52 1012.57 1012.61 1012.65 1012.69 1012.72 1012.74 1012.75 1012.76 1012.77 1012.80 1012.85 1012.94 1013.05 1013.17 1013.29 1013.39 1013.47 1013.52 1013.54 1013.55
1010.96 1010.63 1010.39 1010.30 1010.35 1010.50 1010.69 1010.85 1010.93 1010.93 1010.86 1010.78 1010.74 1010.77 1010.91 1011.14 1011.44 1011.77 1012.09 1012.36 1012.57 1012.72 1012.82 1012.89 1012.93 1012.96 1012.99 1013.00 1013.00 1012.99 1013.00 1013.02 1013.07 1013.16 1013.28 1013.44 1013.60 1013.75 1013.87 1013.95 1014.00 1014.03 1014.06
1010.87 1010.58 1010.39 1010.35 1010.45 1010.64 1010.85 1011.03 1011.13 1011.15 1011.10 1011.02 1010.98 1011.01 1011.14 1011.35 1011.64 1011.96 1012.27 1012.54 1012.76 1012.93 1013.06 1013.15 1013.21 1013.25 1013.27 1013.27 1013.26 1013.25 1013.25 1013.29 1013.37 1013.50 1013.67 1013.86 1014.06 1014.23 1014.36 1014.45 1014.50 1014.54 1014.58
1010.73 1010.48 1010.34 1010.36 1010.51 1010.74 1011.00 1011.21 1011.34 1011.38 1011.35 1011.29 1011.25 1011.28 1011.39 1011.58 1011.84 1012.12 1012.41 1012.68 1012.91 1013.10 1013.25 1013.37 1013.46 1013.52 1013.55 1013.56 1013.55 1013.54 1013.55 1013.61 1013.72 1013.89 1014.10 1014.32 1014.54 1014.72 1014.86 1014.95 1015.01 1015.05 1015.10
1010.57 1010.38 1010.30 1010.38 1010.58 1010.86 1011.15 1011.39 1011.56 1011.62 1011.62 1011.58 1011.56 1011.58 1011.67 1011.84 1012.06 1012.31 1012.57 1012.82 1013.06 1013.26 1013.45 1013.60 1013.73 1013.81 1013.86 1013.88 1013.87 1013.88 1013.90 1013.98 1014.12 1014.31 1014.55 1014.80 1015.03 1015.21 1015.35 1015.44 1015.49 1015.55 1015.62
1010.46 1010.33 1010.31 1010.44 1010.69 1011.00 1011.32 1011.59 1011.78 1011.88 1011.90 1011.89 1011.88 1011.91 1011.99 1012.13 1012.32 1012.53 1012.77 1013.00 1013.23 1013.46 1013.67 1013.86 1014.02 1014.13 1014.21 1014.24 1014.25 1014.26 1014.30 1014.39 1014.55 1014.76 1015.01 1015.27 1015.51 1015.70 1015.83 1015.91 1015.97 1016.03 1016.13
1010.43 1010.36 1010.41 1010.59 1010.87 1011.20 1011.54 1011.82 1012.02 1012.14 1012.19 1012.21 1012.23 1012.27 1012.35 1012.47 1012.63 1012.82 1013.03 1013.25 1013.48 1013.71 1013.94 1014.16 1014.35 1014.49 1014.58 1014.64 1014.66 1014.68 1014.73 1014.84 1015.01 1015.23 1015.49 1015.75 1015.98 1016.17 1016.29 1016.38 1016.44 1016.52 1016.63
1010.50 1010.49 1010.60 1010.81 1011.12 1011.45 1011.78 1012.06 1012.27 1012.40 1012.48 1012.52 1012.57 1012.64 1012.73 1012.86 1013.01 1013.18 1013.36 1013.57 1013.79 1014.02 1014.26 1014.49 1014.70 1014.87 1014.99 1015.06 1015.10 1015.14 1015.20 1015.31 1015.49 1015.71 1015.97 1016.23 1016.46 1016.64 1016.77 1016.85 1016.92 1017.02 1017.15
1010.64 1010.70 1010.86 1011.11 1011.41 1011.74 1012.05 1012.31 1012.50 1012.64 1012.74 1012.82 1012.91 1013.01 1013.13 1013.27 1013.43 1013.59 1013.76 1013.95 1014.16 1014.38 1014.62 1014.86 1015.08 1015.26 1015.40 1015.49 1015.55 1015.61 1015.69 1015.82 1016.00 1016.22 1016.48 1016.73 1016.95 1017.13 1017.26 1017.36 1017.45 1017.55 1017.71
1010.83 1010.95 1011.15 1011.42 1011.72 1012.03 1012.31 1012.54 1012.72 1012.86 1012.97 1013.09 1013.21 1013.35 1013.51 1013.68 1013.86 1014.03 1014.20 1014.38 1014.57 1014.78 1015.01 1015.24 1015.46 1015.66 1015.82 1015.94 1016.03 1016.12 1016.22 1016.36 1016.55 1016.77 1017.02 1017.27 1017.49 1017.67 1017.81 1017.92 1018.02 1018.15 1018.31
1011.01 1011.19 1011.43 1011.70 1011.99 1012.28 1012.53 1012.73 1012.89 1013.03 1013.16 1013.30 1013.46 1013.65 1013.85 1014.06 1014.27 1014.46 1014.64 1014.82 1015.00 1015.20 1015.41 1015.63 1015.86 1016.07 1016.25 1016.41 1016.54 1016.67 1016.81 1016.97 1017.17 1017.39 1017.63 1017.87 1018.08 1018.26 1018.41 1018.53 1018.66 1018.80 1018.97
1011.14 1011.37 1011.63 1011.92 1012.20 1012.46 1012.69 1012.87 1013.01 1013.15 1013.28 1013.44 1013.64 1013.86 1014.11 1014.37 1014.62 1014.85 1015.05 1015.24 1015.43 1015.62 1015.83 1016.04 1016.27 1016.50 1016.71 1016.91 1017.10 1017.28 1017.46 1017.65 1017.86 1018.09 1018.32 1018.54 1018.74 1018.92 1019.07 1019.21 1019.34 1019.49 1019.66
1011.19 1011.45 1011.74 1012.03 1012.31 1012.56 1012.77 1012.94 1013.08 1013.20 1013.34 1013.51 1013.72 1013.98 1014.27 1014.58 1014.88 1015.15 1015.41 1015.63 1015.84 1016.04 1016.25 1016.47 1016.71 1016.97 1017.22 1017.47 1017.72 1017.96 1018.19 1018.42 1018.64 1018.86 1019.08 1019.28 1019.46 1019.62 1019.77 1019.91 1020.05 1020.20 1020.37
1011.13 1011.42 1011.72 1012.03 1012.32 1012.58 1012.79 1012.96 1013.09 1013.20 1013.33 1013.50 1013.72 1014.00 1014.32 1014.67 1015.02 1015.37 1015.68 1015.96 1016.21 1016.45 1016.68 1016.93 1017.20 1017.48 1017.78 1018.09 1018.40 1018.70 1018.99 1019.25 1019.49 1019.71 1019.90 1020.07 1020.22 1020.35 1020.48 1020.61 1020.75 1020.90 1021.06
1010.97 1011.27 1011.60 1011.92 1012.24 1012.52 1012.74 1012.92 1013.06 1013.17 1013.29 1013.44 1013.65 1013.92 1014.26 1014.65 1015.07 1015.48 1015.88 1016.23 1016.55 1016.85 1017.13 1017.41 1017.71 1018.04 1018.39 1018.76 1019.13 1019.49 1019.83 1020.12 1020.38 1020.59 1020.75 1020.88 1020.99 1021.09 1021.19 1021.30 1021.43 1021.57 1021.71
1010.72 1011.05 1011.39 1011.74 1012.08 1012.40 1012.66 1012.86 1013.01 1013.12 1013.22 1013.35 1013.53 1013.79 1014.14 1014.56 1015.03 1015.52 1016.00 1016.45 1016.86 1017.23 1017.57 1017.90 1018.24 1018.61 1019.01 1019.43 1019.86 1020.27 1020.66 1020.99 1021.26 1021.46 1021.60 1021.69 1021.75 1021.81 1021.87 1021.95 1022.06 1022.18 1022.31
1010.42 1010.76 1011.12 1011.50 1011.89 1012.24 1012.55 1012.80 1012.97 1013.08 1013.16 1013.26 1013.41 1013.64 1013.99 1014.43 1014.95 1015.51 1016.09 1016.63 1017.14 1017.58 1017.99 1018.37 1018.75 1019.15 1019.59 1020.05 1020.53 1021.00 1021.43 1021.80 1022.09 1022.29 1022.41 1022.47 1022.49 1022.50 1022.53 1022.58 1022.66 1022.77 1022.88
1010.09 1010.44 1010.82 1011.24 1011.66 1012.07 1012.44 1012.73 1012.93 1013.06 1013.13 1013.20 1013.32 1013.52 1013.85 1014.30 1014.86 1015.49 1016.15 1016.78 1017.37 1017.89 1018.36 1018.78 1019.19 1019.62 1020.08 1020.57 1021.09 1021.61 1022.08 1022.50 1022.81 1023.03 1023.15 1023.19 1023.19 1023.18 1023.17 1023.19 1023.25 1023.34 1023.44
1009.75 1010.12 1010.52 1010.95 1011.42 1011.88 1012.30 1012.65 1012.90 1013.06 1013.13 1013.19 1013.28 1013.46 1013.77 1014.22 1014.80 1015.48 1016.20 1016.91 1017.56 1018.14 1018.65 1019.10 1019.52 1019.96 1020.43 1020.94 1021.49 1022.05 1022.57 1023.03 1023.40 1023.65 1023.80 1023.85 1023.85 1023.82 1023.80 1023.81 1023.85 1023.92 1024.01
1009.43 1009.81 1010.21 1010.66 1011.15 1011.66 1012.14 1012.56 1012.86 1013.06 1013.16 1013.22 1013.30 1013.46 1013.75 1014.20 1014.79 1015.49 1016.25 1017.00 1017.70 1018.32 1018.85 1019.30 1019.72 1020.15 1020.62 1021.13 1021.70 1022.29 1022.87 1023.39 1023.81 1024.13 1024.32 1024.42 1024.45 1024.44 1024.43 1024.43 1024.46 1024.52 1024.60
1009.13 1009.51 1009.91 1010.37 1010.87 1011.42 1011.95 1012.43 1012.80 1013.05 1013.19 1013.27 1013.36 1013.51 1013.79 1014.23 1014.82 1015.53 1016.30 1017.08 1017.80 1018.42 1018.95 1019.39 1019.79 1020.19 1020.64 1021.15 1021.72 1022.34 1022.96 1023.54 1024.05 1024.44 1024.71 1024.88 1024.97 1025.00 1025.02 1025.04 1025.08 1025.14 1025.21
1008.85 1009.23 1009.62 1010.07 1010.58 1011.14 1011.72 1012.25 1012.68 1013.00 1013.20 1013.32 1013.42 1013.59 1013.86 1014.29 1014.87 1015.57 1016.35 1017.12 1017.83 1018.45 1018.96 1019.38 1019.74 1020.11 1020.52 1021.00 1021.57 1022.21 1022.87 1023.51 1024.09 1024.57 1024.93 1025.19 1025.36 1025.47 1025.54 1025.60 1025.67 1025.74 1025.81
1008.60 1008.98 1009.35 1009.77 1010.27 1010.84 1011.44 1012.02 1012.51 1012.89 1013.14 1013.31 1013.45 1013.63 1013.92 1014.34 1014.91 1015.60 1016.36 1017.12 1017.82 1018.42 1018.91 1019.30 1019.63 1019.95 1020.32 1020.78 1021.32 1021.95 1022.63 1023.32 1023.96 1024.52 1024.97 1025.33 1025.59 1025.78 1025.93 1026.05 1026.16 1026.26 1026.35
1008.38 1008.75 1009.10 1009.50 1009.98 1010.54 1011.15 1011.75 1012.28 1012.71 1013.02 1013.23 1013.41 1013.61 1013.90 1014.32 1014.88 1015.56 1016.31 1017.07 1017.76 1018.36 1018.83 1019.20 1019.50 1019.79 1020.12 1020.53 1021.04 1021.64 1022.31 1023.01 1023.69 1024.30 1024.84 1025.27 1025.63 1025.91 1026.14 1026.33 1026.50 1026.64 1026.76
1008.19 1008.56 1008.90 1009.27 1009.72 1010.26 1010.86 1011.46 1012.01 1012.47 1012.81 1013.06 1013.27 1013.49 1013.79 1014.22 1014.78 1015.45 1016.20 1016.96 1017.67 1018.27 1018.76 1019.13 1019.42 1019.68 1019.97 1020.33 1020.78 1021.34 1021.97 1022.64 1023.32 1023.96 1024.54 1025.04 1025.47 1025.83 1026.14 1026.41 1026.65 1026.85 1027.01
Thickness
5782 5782 5781 5780 5780 5779 5779 5778 5777 5777 5777 5776 5775 5775 5774 5773 5773 5772 5772 5771 5771 5771 5770 5770 5769 5769 5769 5768 5768 5767 5767 5766 5766 5766 5765 5764 5763 5763 5763 5763 5763 5763 5763
5785 5781 5779 5778 5778 5777 5777 5776 5775 5775 5774 5774 5773 5772 5771 5771 5770 5770 5769 5769 5768 5768 5768 5767 5767 5767 5766 5765 5765 5764 5764 5764 5764 5763 5763 5762 5761 5761 5761 5761 5761 5761 5760
5785 5781 5777 5776 5775 5775 5774 5774 5773 5772 5772 5771 5770 5770 5769 5768 5767 5767 5766 5766 5766 5765 5765 5765 5765 5764 5763 5762 5762 5762 5762 5762 5762 5761 5761 5760 5759 5759 5758 5758 5758 5758 5758
5785 5780 5776 5774 5773 5773 5772 5771 5771 5770 5769 5768 5768 5767 5767 5766 5765 5764 5764 5763 5763 5762 5762 5762 5761 5761 5760 5760 5759 5759 5759 5759 5759 5759 5759 5758 5757 5756 5756 5756 5755 5755 5755
5783 5778 5774 5772 5771 5770 5769 5769 5768 5768 5767 5766 5765 5764 5764 5763 5762 5761 5761 5760 5759 5759 5759 5758 5758 5757 5757 5757 5757 5757 5757 5757 5757 5757 5757 5755 5754 5753 5753 5753 5753 5752 5752
5779 5776 5772 5770 5769 5768 5767 5766 5766 5765 5764 5763 5762 5762 5761 5760 5759 5759 5758 5757 5756 5756 5755 5755 5755 5754 5754 5753 5754 5754 5754 5755 5754 5754 5754 5752 5751 5750 5750 5750 5750 5749 5749
5776 5774 5770 5768 5767 5765 5764 5763 5763 5762 5761 5761 5760 5759 5758 5758 5757 5756 5755 5754 5753 5753 5752 5751 5751 5751 5750 5750 5750 5751 5751 5751 5752 5751 5750 5749 5748 5748 5747 5747 5746 5746 5745
5775 5772 5768 5766 5764 5763 5762 5761 5760 5759 5759 5758 5758 5757 5756 5755 5754 5753 5752 5751 5750 5749 5749 5748 5747 5747 5747 5747 5747 5748 5748 5749 5749 5748 5747 5745 5745 5744 5744 5743 5743 5743 5742
5773 5771 5767 5764 5763 5761 5760 5759 5758 5757 5756 5756 5755 5754 5753 5752 5751 5750 5749 5748 5747 5746 5746 5745 5744 5744 5744 5744 5745 5745 5745 5745 5745 5745 5744 5742 5741 5741 5740 5740 5739 5739 5738
5771 5769 5767 5765 5763 5760 5758 5757 5755 5754 5754 5753 5752 5752 5751 5750 5749 5747 5746 5745 5744 5744 5743 5742 5742 5741 5741 5742 5742 5742 5742 5742 5742 5741 5739 5738 5738 5737 5737 5736 5735 5735 5734
5766 5766 5766 5764 5762 5759 5757 5755 5753 5752 5751 5750 5750 5749 5748 5747 5746 5745 5743 5742 5742 5741 5741 5740 5740 5739 5739 5740 5740 5740 5739 5739 5739 5737 5736 5735 5735 5734 5733 5732 5731 5731 5730
5759 5761 5763 5762 5760 5758 5756 5753 5751 5750 5749 5748 5748 5747 5746 5745 5745 5743 5741 5740 5739 5739 5738 5738 5738 5738 5738 5738 5738 5737 5736 5736 5735 5734 5732 5732 5731 5730 5730 5729 5728 5727 5726
5758 5758 5759 5759 5758 5756 5754 5751 5750 5748 5747 5747 5746 5746 5745 5744 5742 5741 5739 5737 5737 5736 5736 5736 5736 5736 5736 5735 5735 5735 5734 5733 5732 5730 5728 5728 5727 5727 5726 5725 5725 5723 5722
5756 5755 5756 5756 5755 5753 5751 5749 5747 5746 5745 5744 5744 5743 5742 5741 5740 5738 5737 5736 5735 5735 5735 5734 5734 5734 5733 5732 5732 5731 5731 5730 5728 5726 5724 5724 5723 5723 5722 5721 5721 5720 5719
5753 5752 5752 5752 5751 5749 5747 5746 5744 5743 5742 5740 5740 5740 5739 5737 5736 5735 5733 5733 5733 5732 5732 5731 5730 5730 5729 5728 5728 5727 5726 5726 5724 5722 5721 5720 5719 5718 5718 5718 5717 5716 5715
5751 5750 5749 5748 5747 5745 5743 5742 5740 5739 5737 5737 5736 5736 5735 5734 5733 5731 5730 5729 5729 5728 5728 5727 5726 5725 5724 5723 5722 5722 5721 5721 5720 5719 5717 5715 5714 5714 5714 5713 5713 5712 5711
5749 5748 5746 5745 5744 5742 5740 5739 5737 5735 5734 5732 5731 5731 5731 5730 5729 5727 5726 5724 5724 5724 5723 5722 5722 5721 5720 5719 5717 5717 5716 5716 5715 5714 5712 5711 5710 5709 5709 5708 5708 5708 5708
5748 5745 5744 5743 5740 5738 5736 5734 5732 5731 5730 5728 5727 5727 5726 5726 5725 5723 5721 5720 5720 5719 5718 5716 5715 5714 5713 5713 5712 5712 5711 5711 5711 5710 5709 5707 5706 5705 5704 5704 5703 5704 5704
5746 5743 5740 5739 5737 5734 5732 5730 5728 5726 5725 5723 5723 5722 5722 5721 5720 5718 5717 5716 5715 5714 5713 5712 5710 5708 5707 5707 5707 5707 5707 5706 5706 5706 5705 5703 5702 5701 5700 5699 5699 5699 5699
5744 5742 5738 5736 5733 5730 5728 5726 5723 5721 5720 5719 5718 5717 5717 5716 5715 5714 5712 5711 5710 5708 5706 5705 5704 5703 5703 5703 5704 5702 5702 5702 5702 5701 5700 5699 5698 5697 5696 5695 5694 5694 5693
5740 5737 5734 5731 5729 5726 5722 5719 5715 5714 5714 5714 5714 5713 5712 5711 5710 5709 5708 5706 5705 5702 5701 5700 5698 5697 5697 5698 5695 5693 5695 5697 5696 5696 5696 5695 5694 5693 5692 5691 5690 5689 5689
5735 5732 5730 5727 5725 5722 5719 5717 5715 5712 5711 5710 5710 5709 5708 5707 5706 5704 5703 5701 5699 5697 5696 5695 5693 5691 5691 5693 5689 5685 5681 5683 5687 5691 5690 5689 5688 5688 5687 5687 5686 5685 5684
5730 5729 5727 5724 5722 5720 5717 5714 5712 5709 5706 5704 5703 5703 5703 5702 5701 5700 5698 5697 5695 5693 5690 5690 5689 5688 5685 5686 5688 5683 5677 5672 5675 5680 5682 5683 5683 5682 5682 5682 5681 5680 5679
5727 5727 5725 5721 5719 5716 5714 5710 5705 5701 5698 5699 5699 5698 5698 5698 5696 5695 5694 5692 5691 5689 5687 5687 5687 5685 5683 5680 5682 5683 5682 5678 5671 5669 5673 5676 5677 5677 5677 5677 5676 5675 5674
5724 5722 5720 5717 5715 5712 5710 5706 5702 5698 5697 5696 5696 5694 5693 5692 5692 5691 5690 5688 5687 5685 5684 5684 5683 5681 5680 5678 5676 5676 5677 5676 5674 5668 5664 5666 5669 5671 5671 5671 5670 5669 5668
5720 5717 5715 5712 5709 5708 5706 5703 5699 5695 5693 5691 5689 5688 5687 5687 5687 5686 5686 5684 5683 5681 5680 5680 5679 5678 5676 5675 5674 5673 5671 5669 5667 5666 5662 5661 5660 5663 5665 5665 5664 5663 5662